| time (UTC) | temp C | wind direction | speed KPH | gust KPH | rain 1hr cm | rain 24hr cm | rain mn cm | humidity % | barometer mb |
| 20260906113046 | 21 | 360 | 4.8 | 12.9 | 0.00 | 0.00 | 0.00 | 86 | 1020.6 |
| 20260906111549 | 21 | 360 | 3.2 | 14.5 | 0.00 | 0.00 | 0.00 | 86 | 1020.5 |
| 20260906110047 | 21 | 360 | 3.2 | 12.9 | 0.00 | 0.00 | 0.00 | 86 | 1020.4 |
| 20260906104542 | 21 | 360 | 6.4 | 14.5 | 0.00 | 0.00 | 0.00 | 85 | 1020.2 |
| 20260906103054 | 22 | 360 | 4.8 | 14.5 | 0.00 | 0.00 | 0.00 | 85 | 1020.0 |
| 20260906101547 | 22 | 360 | 3.2 | 8.0 | 0.00 | 0.00 | 0.00 | 84 | 1020.0 |
| 20260906100046 | 22 | 360 | 4.8 | 12.9 | 0.00 | 0.00 | 0.00 | 84 | 1020.0 |
| 20260906094541 | 22 | 360 | 4.8 | 9.7 | 0.00 | 0.00 | 0.00 | 83 | 1019.9 |
| 20260906093105 | 22 | 360 | 4.8 | 12.9 | 0.00 | 0.00 | 0.00 | 83 | 1019.8 |
| 20260906091555 | 22 | 360 | 3.2 | 12.9 | 0.00 | 0.00 | 0.00 | 83 | 1019.8 |
| 20260906090049 | 22 | 360 | 4.8 | 9.7 | 0.00 | 0.00 | 0.00 | 83 | 1019.7 |
| 20260906084541 | 22 | 360 | 1.6 | 9.7 | 0.00 | 0.00 | 0.00 | 83 | 1019.8 |
| 20260906083052 | 22 | 360 | 3.2 | 14.5 | 0.00 | 0.00 | 0.00 | 82 | 1019.7 |
| 20260906081554 | 22 | 360 | 3.2 | 12.9 | 0.00 | 0.00 | 0.00 | 82 | 1019.7 |
| 20260906080048 | 22 | 360 | 3.2 | 8.0 | 0.00 | 0.00 | 0.00 | 84 | 1019.8 |
| 20260906074542 | 22 | 360 | 3.2 | 8.0 | 0.00 | 0.00 | 0.00 | 84 | 1019.8 |
| 20260906073041 | 22 | 360 | 6.4 | 14.5 | 0.00 | 0.00 | 0.00 | 84 | 1019.7 |
| 20260906071559 | 22 | 360 | 3.2 | 14.5 | 0.00 | 0.00 | 0.00 | 84 | 1019.9 |
| 20260906070050 | 22 | 360 | 4.8 | 14.5 | 0.00 | 0.00 | 0.00 | 85 | 1019.8 |
| 20260906064544 | 22 | 360 | 3.2 | 9.7 | 0.00 | 0.00 | 0.00 | 84 | 1019.8 |
| 20260906063043 | 22 | 360 | 4.8 | 14.5 | 0.00 | 0.00 | 0.00 | 84 | 1019.9 |
| 20260906061550 | 22 | 360 | 3.2 | 14.5 | 0.00 | 0.00 | 0.00 | 86 | 1019.9 |
| 20260906060050 | 22 | 360 | 6.4 | 14.5 | 0.00 | 0.00 | 0.00 | 87 | 1019.9 |
| 20260906054546 | 22 | 360 | 1.6 | 12.9 | 0.00 | 0.00 | 0.00 | 87 | 1019.7 |
| 20260906053042 | 22 | 360 | 4.8 | 9.7 | 0.00 | 0.00 | 0.00 | 88 | 1019.7 |
| 20260906051553 | 22 | 360 | 6.4 | 14.5 | 0.00 | 0.00 | 0.00 | 88 | 1019.4 |
| 20260906050111 | 22 | 360 | 4.8 | 16.1 | 0.00 | 0.00 | 0.00 | 88 | 1019.5 |
| 20260906044542 | 22 | 360 | 4.8 | 12.9 | 0.00 | 0.00 | 0.00 | 88 | 1019.3 |
| 20260906043101 | 22 | 360 | 4.8 | 16.1 | 0.00 | 0.00 | 0.00 | 88 | 1019.1 |
| 20260906041549 | 22 | 360 | 3.2 | 16.1 | 0.00 | 0.00 | 0.00 | 88 | 1018.9 |
| 20260906040048 | 22 | 360 | 3.2 | 14.5 | 0.00 | 0.00 | 0.00 | 87 | 1018.8 |
| 20260906034545 | 22 | 360 | 6.4 | 19.3 | 0.00 | 0.00 | 0.00 | 87 | 1018.8 |
| 20260906033052 | 22 | 360 | 8.0 | 17.7 | 0.00 | 0.00 | 0.00 | 87 | 1018.9 |
| 20260906031548 | 22 | 360 | 8.0 | 27.4 | 0.00 | 0.00 | 0.00 | 87 | 1018.9 |
| 20260906030043 | 22 | 360 | 6.4 | 24.1 | 0.00 | 0.00 | 0.00 | 86 | 1018.9 |
| 20260906024553 | 22 | 360 | 6.4 | 17.7 | 0.00 | 0.00 | 0.00 | 86 | 1018.7 |
| 20260906023047 | 22 | 19 | 6.4 | 30.6 | 0.00 | 0.00 | 0.00 | 86 | 1018.8 |
| 20260906021607 | 22 | 360 | 8.0 | 19.3 | 0.00 | 0.00 | 0.00 | 85 | 1018.9 |
| 20260906020053 | 22 | 17 | 4.8 | 17.7 | 0.00 | 0.00 | 0.00 | 85 | 1019.1 |
| 20260906014546 | 22 | 360 | 6.4 | 20.9 | 0.00 | 0.00 | 0.00 | 85 | 1019.0 |
| 20260906013044 | 22 | 360 | 8.0 | 19.3 | 0.00 | 0.00 | 0.00 | 85 | 1019.0 |
| 20260906011542 | 22 | 360 | 8.0 | 20.9 | 0.00 | 0.00 | 0.00 | 85 | 1018.8 |
| 20260906010053 | 22 | 360 | 6.4 | 17.7 | 0.00 | 0.00 | 0.00 | 86 | 1018.5 |
| 20260906004547 | 22 | 360 | 8.0 | 25.7 | 0.00 | 0.00 | 0.00 | 86 | 1018.4 |
| 20260906003045 | 22 | 360 | 8.0 | 19.3 | 0.00 | 0.00 | 0.00 | 86 | 1018.2 |
| 20260906001542 | 22 | 360 | 8.0 | 27.4 | 0.00 | 0.00 | 0.00 | 86 | 1018.3 |
| 20260906000052 | 22 | 360 | 8.0 | 19.3 | 0.00 | 0.00 | 0.00 | 85 | 1018.2 |
| 20260905234554 | 22 | 360 | 12.9 | 25.7 | 0.00 | 0.00 | 0.00 | 85 | 1018.4 |
| 20260905233043 | 22 | 360 | 9.7 | 27.4 | 0.00 | 0.00 | 0.00 | 84 | 1018.3 |
| 20260905231552 | 22 | 360 | 9.7 | 20.9 | 0.00 | 0.00 | 0.00 | 84 | 1018.2 |
| 20260905230053 | 22 | 360 | 11.3 | 25.7 | 0.00 | 0.00 | 0.00 | 85 | 1017.9 |
| 20260905224544 | 23 | 360 | 11.3 | 27.4 | 0.00 | 0.00 | 0.00 | 84 | 1018.0 |
| 20260905223043 | 23 | 360 | 9.7 | 25.7 | 0.00 | 0.00 | 0.00 | 83 | 1018.1 |
| 20260905221547 | 24 | 360 | 6.4 | 24.1 | 0.00 | 0.00 | 0.00 | 83 | 1017.8 |
| 20260905220049 | 24 | 26 | 8.0 | 22.5 | 0.00 | 0.00 | 0.00 | 82 | 1017.7 |
| 20260905214545 | 24 | 360 | 11.3 | 22.5 | 0.00 | 0.00 | 0.00 | 81 | 1017.6 |
| 20260905213050 | 25 | 360 | 8.0 | 19.3 | 0.00 | 0.00 | 0.00 | 80 | 1017.3 |
| 20260905211548 | 25 | 360 | 11.3 | 22.5 | 0.00 | 0.00 | 0.00 | 79 | 1017.4 |
| 20260905210048 | 25 | 360 | 11.3 | 20.9 | 0.00 | 0.00 | 0.00 | 78 | 1017.4 |
| 20260905204552 | 26 | 360 | 11.3 | 27.4 | 0.00 | 0.00 | 0.00 | 76 | 1017.3 |
| 20260905203048 | 26 | 360 | 8.0 | 27.4 | 0.00 | 0.00 | 0.00 | 78 | 1017.3 |
| 20260905201547 | 26 | 360 | 9.7 | 20.9 | 0.00 | 0.00 | 0.00 | 76 | 1017.4 |
| 20260905200047 | 26 | 360 | 8.0 | 22.5 | 0.00 | 0.00 | 0.00 | 76 | 1017.5 |
| 20260905194555 | 26 | 360 | 9.7 | 22.5 | 0.00 | 0.00 | 0.00 | 77 | 1017.6 |
| 20260905193047 | 26 | 360 | 11.3 | 20.9 | 0.00 | 0.00 | 0.00 | 76 | 1017.7 |
| 20260905191548 | 26 | 360 | 9.7 | 27.4 | 0.00 | 0.00 | 0.00 | 75 | 1017.7 |
| 20260905190044 | 26 | 360 | 8.0 | 20.9 | 0.00 | 0.00 | 0.00 | 75 | 1017.7 |
| 20260905184602 | 26 | 360 | 8.0 | 22.5 | 0.00 | 0.00 | 0.00 | 75 | 1017.8 |
| 20260905183051 | 26 | 360 | 8.0 | 24.1 | 0.00 | 0.00 | 0.00 | 76 | 1017.9 |
| 20260905181548 | 26 | 360 | 9.7 | 20.9 | 0.00 | 0.00 | 0.00 | 76 | 1017.9 |
| 20260905180050 | 26 | 350 | 6.4 | 20.9 | 0.00 | 0.00 | 0.00 | 78 | 1017.6 |
| 20260905174549 | 26 | 20 | 8.0 | 20.9 | 0.00 | 0.00 | 0.00 | 77 | 1017.7 |
| 20260905173100 | 26 | 360 | 8.0 | 25.7 | 0.00 | 0.00 | 0.00 | 79 | 1017.6 |
| 20260905171547 | 26 | 360 | 8.0 | 19.3 | 0.00 | 0.00 | 0.00 | 78 | 1017.7 |
| 20260905170048 | 26 | 329 | 6.4 | 22.5 | 0.00 | 0.00 | 0.00 | 78 | 1017.9 |
| 20260905164543 | 25 | 360 | 9.7 | 20.9 | 0.00 | 0.00 | 0.00 | 79 | 1017.8 |
| 20260905163052 | 26 | 360 | 9.7 | 22.5 | 0.00 | 0.00 | 0.00 | 79 | 1017.9 |
| 20260905161548 | 25 | 360 | 6.4 | 17.7 | 0.00 | 0.00 | 0.00 | 80 | 1017.8 |
| 20260905160052 | 25 | 21 | 6.4 | 19.3 | 0.00 | 0.00 | 0.00 | 81 | 1017.6 |
| 20260905154555 | 26 | 360 | 9.7 | 19.3 | 0.00 | 0.00 | 0.00 | 80 | 1017.6 |
| 20260905153054 | 26 | 360 | 9.7 | 20.9 | 0.00 | 0.00 | 0.00 | 80 | 1017.4 |
| 20260905151547 | 26 | 360 | 8.0 | 24.1 | 0.00 | 0.00 | 0.00 | 81 | 1017.2 |
| 20260905150042 | 25 | 360 | 6.4 | 19.3 | 0.00 | 0.00 | 0.00 | 81 | 1017.2 |
| 20260905144552 | 25 | 360 | 6.4 | 19.3 | 0.00 | 0.00 | 0.00 | 82 | 1016.9 |
| 20260905143052 | 25 | 66 | 8.0 | 20.9 | 0.00 | 0.00 | 0.00 | 83 | 1016.9 |
| 20260905141608 | 25 | 360 | 4.8 | 16.1 | 0.00 | 0.00 | 0.00 | 86 | 1016.8 |
| 20260905140053 | 25 | 360 | 8.0 | 19.3 | 0.00 | 0.00 | 0.00 | 87 | 1016.7 |
| 20260905134551 | 25 | 360 | 8.0 | 16.1 | 0.00 | 0.00 | 0.00 | 88 | 1016.8 |
| 20260905133055 | 24 | 360 | 6.4 | 14.5 | 0.00 | 0.00 | 0.00 | 90 | 1017.1 |
| 20260905131555 | 24 | 360 | 6.4 | 16.1 | 0.00 | 0.00 | 0.00 | 91 | 1016.6 |
| 20260905130041 | 23 | 360 | 3.2 | 9.7 | 0.00 | 0.00 | 0.00 | 92 | 1016.5 |
| 20260905124551 | 23 | 360 | 3.2 | 9.7 | 0.00 | 0.00 | 0.00 | 92 | 1016.3 |
| 20260905123048 | 23 | 360 | 1.6 | 14.5 | 0.00 | 0.00 | 0.00 | 93 | 1016.1 |
| 20260905121542 | 23 | 360 | 6.4 | 12.9 | 0.00 | 0.00 | 0.00 | 92 | 1016.1 |
| 20260905120050 | 23 | 360 | 3.2 | 8.0 | 0.00 | 0.00 | 0.00 | 92 | 1016.1 |
| 20260905114622 | 23 | 360 | 4.8 | 9.7 | 0.00 | 0.00 | 0.00 | 92 | 1015.9 |